Find Starlink 32900

NORAD ID: 63093 Int'l Des: 2025-037 Owner: SPXS Country: US Constellation: starlink operational
LEOCIRCULAR

現在のビュー

3D地球を読み込み中...

About Starlink 32900

Starlink 32900 (NORAD 63093) is a starlink constellation satellite (v2 mini) launched Feb 23, 2025 by SPXS of US. It operates in LEO, CIRCULAR orbit with a mass of 730.00 kg.

次回通過

Passes for default location (London). Set your location on the main map for personalized predictions.

高度履歴

Loading altitude history...

軌道要素

1 63093U 25037S 26263.60373798 .00010378 00000-0 36485-3 0 9998
2 63093 70.0030 220.8018 0003305 268.0895 91.9902 15.29590293 87711
Epoch: Sep 20, 2026 • Age: 22 hours

現在のステータス

高度 497.0 km
遠地点 / 近地点 N/A
速度 7.62 km/s
衛星直下点 -58.48°S, 0.84°W
打ち上げ日 Feb 23, 2025
運用期間 1.5 years
タイプ internet

技術仕様

分類 Payload
質量 730.00 kg
乾燥質量 700.00 kg
長さ 0.30 m
スパン 29.00 m
形状 ? Box + pan
製造者 SPXS
バスタイプ Starlink V2M
フェーズステータス In Orbit
所有者/国 SPXS/US

Most Searched